This demonstration page uses our WeatherBlox Daily Observations layout. Learn more.

Left ArrowRight Arrow

30.21309, -93.2044

Hourly Observations for August 24, 2022

Temp ( °F °C ) Dew Point ( °F °C ) Humidity (%) Winds ( mph kmh ) Pressure ( in mb ) Visibility ( mi km ) Precip ( " mm )
12:15 am 00:15 Partly Cloudy 77 25 75 24.1 95 95 Calm 29.88 1012 10 16 0.00 0.00
12:35 am 00:35 Mostly Cloudy 77 24.9 75 24 95 95 Calm 29.88 1012 7 11 0.00 0.00
12:55 am 00:55 Cloudy 77 25 75 24.1 95 95 Calm 29.88 1012 10 16 0.00 0.00
1:15 am 01:15 Mostly Cloudy with Thunderstorms 77 24.9 75 24 95 95 Calm 29.88 1012 10 16 0.00 0.00
1:35 am 01:35 Cloudy with Rain 76 24.7 75 23.7 94 94 W 10 17 29.88 1012 10 16 0.02 0.51
1:55 am 01:55 Cloudy with Heavy Rain 78 25.3 75 23.7 91 91 SW 17 28 29.88 1012 4 6 0.13 3.30
2:15 am 02:15 Mostly Cloudy with Thunderstorms 77 25.2 74 23.4 90 90 SW 7 11 29.88 1012 10 16 0.14 3.56
2:35 am 02:35 Cloudy with Thunderstorms 77 25.1 74 23.4 90 90 SSW 7 11 29.88 1012 10 16 0.14 3.56
2:55 am 02:55 Cloudy 76 24.7 74 23.5 93 93 SSW 8 13 29.87 1012 10 16 0.14 3.56
3:15 am 03:15 Cloudy with Nearby Thunderstorms 76 24.7 74 23.5 93 93 SSE 9 15 29.88 1012 10 16 0.00 0.00
3:35 am 03:35 Cloudy with Nearby Thunderstorms 75 24.1 73 22.8 92 92 SSE 8 13 29.87 1012 10 16 0.00 0.00
3:55 am 03:55 Cloudy 76 24.3 73 23 92 92 SSE 5 7 29.86 1011 10 16 0.00 0.00
4:15 am 04:15 Cloudy with Nearby Thunderstorms 76 24.4 74 23.1 92 92 SSW 6 9 29.87 1012 10 16 0.00 0.00
4:35 am 04:35 Cloudy with Nearby Thunderstorms 76 24.4 74 23.2 93 93 S 7 11 29.87 1012 10 16 0.00 0.00
4:55 am 04:55 Cloudy with Nearby Thunderstorms 76 24.3 74 23.1 93 93 SSW 5 7 29.87 1012 10 16 0.00 0.00
5:15 am 05:15 Cloudy with Nearby Thunderstorms 76 24.5 74 23.2 92 92 S 7 11 29.88 1012 10 16 0.00 0.00
5:35 am 05:35 Cloudy 76 24.6 74 23.3 92 92 SW 5 7 29.88 1012 10 16 0.00 0.00
6:00 am 06:00 Mostly Cloudy with Light Rain 75 24 73 23 94 94 SSW 8 13 29.88 1012 7 11 0.00 0.00
6:50 am 06:50 Mostly Cloudy with Showers 75 24 73 23 94 94 SSW 13 20 29.90 1013 7 11 0.00 0.00
7:45 am 07:45 Partly Cloudy with Showers 75 24 73 23 94 94 SSW 13 20 29.91 1013 10 16 0.00 0.00
8:24 am 08:24 Mostly Cloudy with Showers 75 24 72 22 89 89 SW 13 20 29.93 1014 5 8 0.00 0.00
8:45 am 08:45 Cloudy with Light Rain 75 24 72 22 89 89 SW 14 22 29.92 1013 3 5 0.00 0.00
9:48 am 09:48 Mostly Cloudy with Light Rain 75 24 73 23 94 94 W 5 7 29.93 1014 4 6 0.00 0.00
10:20 am 10:20 Mostly Cloudy with Thunderstorms 75 24 73 23 94 94 undefined N/A 29.95 1014 3 5 0.00 0.00
10:55 am 10:55 Cloudy with Thunderstorms 73 23 73 23 100 100 S 9 15 29.96 1015 4 6 0.00 0.00
11:45 am 11:45 Mostly Cloudy 75 24 73 23 94 94 S 15 24 29.95 1014 7 11 0.00 0.00
12:45 pm 12:45 Cloudy 77 25 73 23 89 89 SSW 13 20 29.93 1014 10 16 0.00 0.00
1:45 pm 13:45 Mostly Cloudy 77 25 73 23 89 89 SSW 13 20 29.92 1013 10 16 0.00 0.00
2:48 pm 14:48 Partly Cloudy 79 26 73 23 84 84 SW 14 22 29.91 1013 10 16 0.00 0.00
3:55 pm 15:55 Partly Cloudy 79 26 73 23 84 84 SSW 7 11 29.89 1012 10 16 0.00 0.00
4:55 pm 16:55 Partly Cloudy 81 27 75 24 84 84 SW 8 13 29.88 1012 10 16 0.00 0.00
5:46 pm 17:46 Mostly Cloudy 81 27 75 24 84 84 SSW 8 13 29.87 1011 10 16 0.00 0.00
6:55 pm 18:55 Partly Cloudy 81 27 75 24 84 84 S 6 9 29.87 1011 10 16 0.00 0.00
7:55 pm 19:55 Partly Cloudy 79 26 75 24 89 89 Calm 29.88 1012 10 16 0.00 0.00
8:55 pm 20:55 Mostly Clear 75 24 73 23 94 94 Calm 29.88 1012 10 16 0.00 0.00
9:45 pm 21:45 Mostly Clear 75 24 73 23 94 94 Calm 29.91 1013 10 16 0.00 0.00
10:15 pm 22:15 Clear 76 24.3 74 23.4 95 95 SE 3 6 29.91 1013 10 16 0.00 0.00
10:35 pm 22:35 Clear 76 24.2 74 23.3 95 95 ESE 3 6 29.92 1013 10 16 0.00 0.00
10:55 pm 22:55 Clear 75 24.1 74 23.2 95 95 ESE 3 6 29.92 1013 10 16 0.00 0.00
11:15 pm 23:15 Clear 75 24.1 74 23.3 95 95 Calm 29.92 1013 10 16 0.00 0.00
11:35 pm 23:35 Clear 76 24.3 74 23.5 95 95 Calm 29.92 1013 10 16 0.00 0.00
11:55 pm 23:55 Clear with Mist and Fog 76 24.2 74 23.4 95 95 Calm 29.92 1013 2 3 0.00 0.00

Powered by AerisWeather